Weather History for Weslaco, TX

Change the Weather History Date:

Tuesday, February 5, 2013

  Actual Average (KMFE) Record (KMFE)
Temperature  
Mean Temperature 76 °F 63 °F  
Max Temperature 89 °F 73 °F 96 °F (2008)
Min Temperature 64 °F 53 °F 27 °F (2011)
Degree Days  
Heating Degree Days 0 5  
Month to date heating degree days 25  
Since 1 July heating degree days 452  
Cooling Degree Days 12 3  
Month to date cooling degree days 13  
Year to date cooling degree days 75  
Growing Degree Days 26 (Base 50)    
Moisture  
Dew Point 62 °F    
Average Humidity 70    
Maximum Humidity 93    
Minimum Humidity 27    
Precipitation  
Precipitation 0.00 in 0.05 in 0.99 in (1965)
Month to date precipitation 0.23  
Year to date precipitation 1.28  
Sea Level Pressure  
Sea Level Pressure 29.88 in    
Wind  
Wind Speed 6 mph (SSE)    
Max Wind Speed 14 mph    
Max Gust Speed 21 mph    
Visibility 9 miles    
Events      
T = Trace of Precipitation, MM = Missing Value Source: NWS Daily Summary

Daily Weather History Graph

Daily Weather History Graph

Search for Another Location

Airport:

Trip Planner

Search our weather history database for the weather conditions in past years. The results will help you decide how hot, cold, wet, or windy it might be!

Date:

Astronomy

Feb. 05, 2013 Rise Set
Actual Time 7:13 AM CST 6:18 PM CST
Civil Twilight 6:50 AM CST 6:42 PM CST
Nautical Twilight 6:22 AM CST 7:09 PM CST
Astronomical Twilight 5:55 AM CST 7:36 PM CST
Moon 2:47 AM CST (2/5) 1:47 PM CST (2/5)
Length of Visible Light 11h 52m
Length of Day
11h 04m
Waning Crescent, 26% of the Moon is Illuminated
Feb 5
Waning Crescent
Feb 10
New
Feb 17
First Quarter
Feb 25
Full
Mar 4
Last Quarter

Hourly Weather History & Observations

Time (CST) Temp. Heat Index Dew Point Humidity Pressure Visibility Wind Dir Wind Speed Gust Speed Precip Events Conditions
12:15 AM 67.1 °F - 62.6 °F 85% 29.87 in 10.0 mi SSE 4.6 mph - N/A   Clear
12:35 AM 66.4 °F - 62.2 °F 86% 29.87 in 10.0 mi SSE 4.6 mph - N/A   Clear
12:55 AM 66.2 °F - 61.9 °F 86% 29.87 in 10.0 mi SSE 3.5 mph - N/A   Clear
1:15 AM 65.5 °F - 61.7 °F 88% 29.86 in 10.0 mi SSE 4.6 mph - N/A   Clear
1:35 AM 65.7 °F - 62.1 °F 88% 29.86 in 10.0 mi SSE 3.5 mph - N/A   Clear
1:55 AM 65.5 °F - 62.1 °F 89% 29.86 in 10.0 mi SSE 5.8 mph - N/A   Clear
2:15 AM 65.3 °F - 61.9 °F 89% 29.86 in 10.0 mi SSE 4.6 mph - N/A   Clear
2:35 AM 65.3 °F - 61.9 °F 89% 29.86 in 10.0 mi South 4.6 mph - N/A   Clear
2:55 AM 64.8 °F - 61.9 °F 90% 29.86 in 10.0 mi South 3.5 mph - N/A   Clear
3:15 AM 64.6 °F - 61.7 °F 90% 29.86 in 10.0 mi South 5.8 mph - N/A   Clear
3:35 AM 64.4 °F - 61.7 °F 91% 29.86 in 7.0 mi South 4.6 mph - N/A   Clear
3:55 AM 64.4 °F - 61.7 °F 91% 29.87 in 7.0 mi South 6.9 mph - N/A   Clear
4:15 AM 64.4 °F - 61.7 °F 91% 29.87 in 7.0 mi South 4.6 mph - N/A   Clear
4:35 AM 64.4 °F - 61.9 °F 92% 29.87 in 7.0 mi South 5.8 mph - N/A   Clear
4:55 AM 64.6 °F - 62.2 °F 92% 29.87 in 7.0 mi South 5.8 mph - N/A   Clear
5:15 AM 64.8 °F - 62.2 °F 92% 29.87 in 7.0 mi South 6.9 mph - N/A   Clear
5:35 AM 64.6 °F - 62.2 °F 92% 29.88 in 7.0 mi South 5.8 mph - N/A   Clear
5:55 AM 64.6 °F - 62.2 °F 92% 29.88 in 7.0 mi South 5.8 mph - N/A   Clear
6:15 AM 64.2 °F - 61.7 °F 91% 29.89 in 7.0 mi South 3.5 mph - N/A   Clear
6:35 AM 64.0 °F - 61.7 °F 92% 29.89 in 7.0 mi South 4.6 mph - N/A   Clear
6:55 AM 64.4 °F - 61.9 °F 92% 29.90 in 7.0 mi South 5.8 mph - N/A   Clear
7:15 AM 64.6 °F - 62.4 °F 93% 29.90 in 7.0 mi South 4.6 mph - N/A   Clear
7:35 AM 65.3 °F - 62.8 °F 92% 29.91 in 7.0 mi South 4.6 mph - N/A   Clear
7:55 AM 65.5 °F - 63.1 °F 92% 29.91 in 7.0 mi SSE 3.5 mph - N/A   Clear
8:15 AM 65.7 °F - 63.0 °F 91% 29.92 in 7.0 mi Calm Calm - N/A   Clear
8:35 AM 65.8 °F - 63.0 °F 90% 29.93 in 7.0 mi Calm Calm - N/A   Clear
8:55 AM 67.8 °F - 64.4 °F 89% 29.94 in 7.0 mi Calm Calm - N/A   Clear
9:35 AM 71.6 °F - 64.9 °F 79% 29.96 in 10.0 mi South 8.1 mph - N/A   Clear
9:55 AM 74.1 °F - 64.8 °F 72% 29.96 in 10.0 mi South 4.6 mph - N/A   Clear
10:35 AM 77.5 °F - 63.9 °F 63% 29.95 in 10.0 mi South 8.1 mph - N/A   Clear
10:55 AM 80.6 °F 81.8 °F 62.8 °F 54% 29.95 in 10.0 mi SSW 6.9 mph - N/A   Clear
11:15 AM 81.1 °F 82.4 °F 63.0 °F 54% 29.95 in 7.0 mi South 4.6 mph - N/A   Clear
11:35 AM 83.3 °F 84.1 °F 62.1 °F 49% 29.94 in 10.0 mi South 3.5 mph - N/A   Clear
11:55 AM 84.7 °F 84.4 °F 59.0 °F 42% 29.93 in 10.0 mi South 6.9 mph - N/A   Clear
12:15 PM 84.7 °F 84.6 °F 60.3 °F 43% 29.92 in 7.0 mi South 4.6 mph - N/A   Clear
12:35 PM 86.2 °F 85.4 °F 58.8 °F 39% 29.91 in 10.0 mi South 4.6 mph - N/A   Clear
12:55 PM 87.6 °F 86.9 °F 59.4 °F 38% 29.90 in 10.0 mi SE 5.8 mph - N/A   Clear
1:15 PM 88.0 °F 86.5 °F 56.7 °F 34% 29.88 in 10.0 mi SSE 4.6 mph - N/A   Clear
1:35 PM 88.3 °F 86.5 °F 55.0 °F 32% 29.88 in 7.0 mi SSE 4.6 mph - N/A   Clear
1:55 PM 88.7 °F 87.1 °F 56.3 °F 33% 29.87 in 7.0 mi South 5.8 mph - N/A   Clear
2:15 PM 89.1 °F 87.5 °F 56.8 °F 33% 29.86 in 7.0 mi SE 5.8 mph - N/A   Clear
2:35 PM 89.2 °F 87.1 °F 54.1 °F 30% 29.85 in 10.0 mi ESE 5.8 mph - N/A   Clear
2:55 PM 89.6 °F 87.9 °F 55.9 °F 32% 29.84 in 10.0 mi SSE 4.6 mph - N/A   Clear
3:15 PM 89.8 °F 87.9 °F 55.2 °F 31% 29.83 in 7.0 mi SE 6.9 mph - N/A   Scattered Clouds
3:55 PM 89.8 °F 87.5 °F 54.0 °F 29% 29.82 in 10.0 mi ESE 4.6 mph - N/A   Clear
4:15 PM 89.6 °F - 51.1 °F 27% 29.82 in 10.0 mi ESE 8.1 mph 16.1 mph N/A   Clear
4:35 PM 88.3 °F 86.5 °F 55.4 °F 32% 29.82 in 10.0 mi SSE 10.4 mph 17.3 mph N/A   Clear
4:55 PM 87.1 °F 86.1 °F 58.1 °F 37% 29.83 in 10.0 mi SSE 11.5 mph 18.4 mph N/A   Clear
5:15 PM 84.7 °F 84.4 °F 59.4 °F 42% 29.83 in 10.0 mi SSE 11.5 mph 18.4 mph N/A   Clear
5:35 PM 83.1 °F 83.2 °F 59.9 °F 45% 29.83 in 10.0 mi SSE 10.4 mph 17.3 mph N/A   Clear
5:55 PM 82.4 °F 82.3 °F 58.5 °F 44% 29.83 in 10.0 mi SE 8.1 mph 17.3 mph N/A   Clear
6:15 PM 80.6 °F 81.4 °F 60.3 °F 50% 29.84 in 10.0 mi SE 11.5 mph - N/A   Clear
6:55 PM 77.7 °F - 62.1 °F 58% 29.86 in 10.0 mi SSE 11.5 mph 17.3 mph N/A   Clear
7:15 PM 76.5 °F - 63.5 °F 64% 29.87 in 10.0 mi SE 12.7 mph 17.3 mph N/A   Clear
7:55 PM 74.5 °F - 64.0 °F 70% 29.89 in 10.0 mi SE 10.4 mph - N/A   Clear
8:15 PM 73.8 °F - 65.3 °F 75% 29.90 in 10.0 mi SE 9.2 mph - N/A   Clear
8:35 PM 73.0 °F - 65.3 °F 77% 29.91 in 10.0 mi SE 9.2 mph - N/A   Clear
8:55 PM 72.5 °F - 65.5 °F 79% 29.91 in 10.0 mi SE 9.2 mph - N/A   Clear
9:15 PM 72.1 °F - 65.3 °F 79% 29.91 in 10.0 mi SE 6.9 mph - N/A   Clear
9:35 PM 71.6 °F - 65.5 °F 81% 29.91 in 10.0 mi SE 8.1 mph - N/A   Clear
9:55 PM 71.2 °F - 65.8 °F 83% 29.91 in 10.0 mi SE 8.1 mph - N/A   Clear
10:15 PM 70.9 °F - 65.8 °F 84% 29.90 in 10.0 mi SE 6.9 mph - N/A   Clear
10:35 PM 71.2 °F - 66.4 °F 85% 29.90 in 10.0 mi ESE 5.8 mph - N/A   Mostly Cloudy
10:55 PM 71.8 °F - 67.1 °F 85% 29.89 in 10.0 mi SE 9.2 mph - N/A   Overcast
11:15 PM 71.8 °F - 67.1 °F 85% 29.91 in 10.0 mi SE 10.4 mph - N/A   Overcast
11:35 PM 71.8 °F - 67.1 °F 85% 29.90 in 7.0 mi SE 9.2 mph 16.1 mph N/A   Mostly Cloudy
11:55 PM 72.3 °F - 67.3 °F 84% 29.90 in 7.0 mi SSE 13.8 mph 20.7 mph N/A   Overcast